Other Public Products
Issued by NWS Grand Forks, ND

Home | Current Version | Previous Version | Text Only | Print | Product List | Glossary Off
Versions: 1 2 3 4 5 6 7 8 9 10 11 12 13 14 15 16 17 18 19 20 21 22 23 24 25 26 27 28 29 30 31 32 33 34 35 36 37 38 39 40 41 42 43 44 45 46 47 48 49 50

000
FPUS83 KFGF 262131
OPUFGF
PRAIRIE TO PINES WEATHER ROUNDUP
NATIONAL WEATHER SERVICE EASTERN NORTH DAKOTA/GRAND FORKS ND
400 PM CDT SUN APR 26 2015

 **SATELLITE DATA USED TO AUGMENT SKY COVER AT AUTOMATED STATIONS**
 *****  WEATHER ACROSS EASTERN NORTH DAKOTA  *****

CITY           SKY/WX    TMP DP  RH WIND       PRES   REMARKS
GRAND FORKS    PTSUNNY   67  25  20 SW3       30.10F
GRAND FORKS AF SUNNY     67  26  22 S8        30.10F
GRAND CITY NWS   N/A     68 N/A N/A W1          N/A
BUXTON           N/A     68  24  19 CALM        N/A
DEVILS LAKE    PTSUNNY   61  45  55 NW10      30.10S
FARGO          SUNNY     66  25  21 VRB5      30.10F
WAHPETON ARPT  CLEAR     64  19  17 E3        30.11S
$$

 *****  WEATHER ACROSS CENTRAL AND WESTERN NORTH DAKOTA  *****

CITY           SKY/WX    TMP DP  RH WIND       PRES   REMARKS
JAMESTOWN      SUNNY     66  34  30 E8        30.08S
BISMARCK       CLOUDY    59  43  55 CALM      30.09F
MINOT          LGT RAIN  48  44  86 SE5       30.12R FOG
MINOT AFB      CLOUDY    52  48  85 S8        30.10S
GARRISON         N/A     48  44  86 NW8       30.12R
WILLISTON      MOSUNNY   54  35  48 VRB6      30.13R
DICKINSON      CLOUDY    45  41  86 NE8       30.09S
HETTINGER      CLOUDY    48  46  93 NE10      30.09S FOG
$$

 *****  OTHER OBSERVATIONS NORTHEAST NORTH DAKOTA  *****

CITY           SKY/WX    TMP DP  RH WIND       PRES   REMARKS
WALHALLA       FAIR      68  32  26 S9G16     30.09S
LANGDON        FAIR      66  43  42 SW13G20   30.11R
CAVALIER       FAIR      66  32  28 SW12      30.09S
GRAFTON        FAIR      66  30  26 SW9       30.11S
CANDO          CLOUDY    57  48  72 W7        30.13S
FORT TOTTEN    NOT AVBL
ROLLA          CLOUDY    50  50 100 SW14      30.12R
RUGBY          NOT AVBL
 ***** THE ABOVE OBSERVATIONS ARE NON NWS ARE NOT QUALITY
        CONTROLLED AND MAY MIS-REPORT RAIN FOR SNOW...
$$

 *****  OTHER OBSERVATIONS SOUTHEAST NORTH DAKOTA *****

CITY           SKY/WX    TMP DP  RH WIND       PRES   REMARKS
COOPERSTOWN    NOT AVBL
VALLEY CITY    FAIR      64  30  27 SE9       30.09F
OAKES            N/A     64  36  34 S5G16     30.08S
GWINNER        CLEAR     66  32  28 S5G18     30.10F
SHEYENNE NWR     N/A     66  27  23 SE5       29.95S
BUFFALO        NOT AVBL
WYNDMERE       NOT AVBL
 ***** THE ABOVE OBSERVATIONS ARE NON NWS ARE NOT QUALITY
       CONTROLLED AND MAY MIS-REPORT RAIN FOR SNOW...
$$

  *****  WEATHER ACROSS NORTHERN MINNESOTA  *****

CITY           SKY/WX    TMP DP  RH WIND       PRES   REMARKS
FLAG ISLAND    MOSUNNY   55  25  30 S3        30.15S
WARROAD        MOSUNNY   54  28  37 E13       30.15F
ROSEAU         SUNNY     66  23  19 CALM      30.12F
HALLOCK        SUNNY     68  18  14 E3        30.10F
THF RVR FALLS  SUNNY     64  27  24 SE5       30.13S
HALSTAD          N/A     67  23  18 SE7         N/A
FOSSTON        SUNNY     66  21  18 S3        30.12F
BAUDETTE       SUNNY     62  23  22 VRB7      30.14F
WASKISH        SUNNY     55  28  35 W9        30.14S
CROOKSTON      SUNNY     66  27  22 SE6       30.12S
$$
  *****  WEATHER ACROSS CENTRAL AND WEST MINNESOTA  *****

CITY           SKY/WX    TMP DP  RH WIND       PRES   REMARKS
BEMIDJI        MOSUNNY   61  22  22 E5        30.13F
PARK RAPIDS    SUNNY     61  17  18 CALM      30.12F
WADENA         SUNNY     61  25  25 NE8       30.11F
DETROIT LAKES  SUNNY     63  23  22 NE7       30.13S
MOORHEAD       SUNNY     64  25  22 E3        30.11F
FERGUS FALLS   SUNNY     63  16  16 E5        30.11F
ELBOW LAKE     FAIR      62  24  24 NE7       30.11S
MORRIS MN      SUNNY     64  23  20 E10G16    30.09F
STAPLES        SUNNY     61  10  13 NE6       30.12S
WHEATON        SUNNY     63  28  27 NE6       30.11F
$$
  *****  WEATHER ELSEWHERE ACROSS MINNESOTA  *****

CITY           SKY/WX    TMP DP  RH WIND       PRES   REMARKS
DULUTH         SUNNY     54  15  21 E10       30.14F
INTRNTL FALLS  SUNNY     58   3  11 NE7       30.16F
ELY            SUNNY     57  12  17 E7        30.13F
CLOQUET        SUNNY     57   9  14 E8        30.13F
BRAINERD       SUNNY     60  15  17 NE5       30.13F
HIBBING        SUNNY     61  11  14 N7        30.13S
ALEXANDRIA     SUNNY     61  19  19 MISG      30.12F
SAINT CLOUD    SUNNY     62  21  20 VRB6      30.10F
MINNEAPOLIS    MOSUNNY   61  22  22 E5        30.09F
$$

  *****  WEATHER ACROSS SOUTH DAKOTA  *****

CITY           SKY/WX    TMP DP  RH WIND       PRES   REMARKS
SIOUX FALLS    MOSUNNY   66  32  28 NE8       30.03F
BROOKINGS      SUNNY     63  34  34 NE10G16   30.07S
WATERTOWN      SUNNY     64  30  27 VRB6      30.08S
HURON          SUNNY     67  30  25 SE10      30.05S
SISSETON         N/A     64  29  26 VRB6      30.09F
ABERDEEN       SUNNY     67  33  28 E10       30.07S
MITCHELL       SUNNY     65  34  31 SE8       30.05F
PIERRE         PTSUNNY   62  39  42 E13G20    30.03S
MOBRIDGE       MOSUNNY   68  36  30 S14       30.02F
RAPID CITY     LGT RAIN  50  47  89 CALM      30.02S
$$

  *****  SOME WEATHER IN NEARBY STATES *****

CITY           SKY/WX    TMP DP  RH WIND       PRES   REMARKS
GLASGOW MT     CLOUDY    44  32  62 N10       30.16R
GREAT FALLS MT CLOUDY    41  27  57 VRB3      30.18S
CHEYENNE WY    LGT RAIN  42  39  89 SE13      29.93R FOG
SCOTTSBLUFF NE CLOUDY    46 N/A N/A E13       29.97S
OMAHA NE       MOSUNNY   64  36  35 E16G24    30.01F
DES MOINES IA  SUNNY     64  28  25 E10       30.02F
DAVENPORT IA   SUNNY     58  32  37 NE8       30.02F
CHICAGO IL     MOSUNNY   55  26  32 NE18G28   30.00F
EAU CLAIRE WI  SUNNY     63  23  21 VRB7G17   30.06F
LA CROSSE WI   SUNNY     63  23  21 W6        30.04F
$$

  *****  SOME NATIONAL WEATHER *****

CITY           SKY/WX    TMP DP  RH WIND       PRES   REMARKS
LA GUARDIA NY  PTSUNNY   59  29  31 N5        29.65S
RALEIGH NC     CLOUDY    52  46  80 N5        29.73R
ATLANTA GA     PTSUNNY   80  55  42 W14G24    29.67R
NEW ORLEANS LA PTSUNNY   83  71  67 VRB5      29.73F
OKLAHOMA CITY  PTSUNNY   74  57  55 E16G22    29.70F
ALBUQUERQUE NM RAIN      47  43  86 NW6       29.76R FOG
SALT LAKE CITY PTSUNNY   48  34  58 W14       30.02R
LOS ANGELES CA MOSUNNY   67  49  52 W16       29.98F
BOISE ID       SUNNY     59  23  25 NW20G30   30.11R
SEATTLE WA     CLOUDY    57  40  52 SW6       30.24S
$$

*** WEATHER ACROSS MANITOBA...SASKATCHEWAN AND ONTARIO ***
                ***ONTARIO***

CITY           SKY/WX    TMP DP  RH WIND       PRES   REMARKS
GERALDTON      MOSUNNY   52  27  37 N13G24    30.14S
THUNDER BAY    MOSUNNY   59  27  29 E10       30.13S
SIOUX LOOKOUT  MOSUNNY   57  28  33 SW6       30.18F
TORONTO        PTSUNNY   52  32  46 N18G25    29.81F
BIG TROUT LK   SUNNY     48  28  46 SE6       30.29S
PICKLE LAKE    MOSUNNY   52  25  35 NE8       30.21S
DRYDEN         SUNNY     57  18  21 N6        30.18S
KENORA         PTSUNNY   59  14  17 E5        30.17S
$$
                *** MANITOBA***

CITY           SKY/WX    TMP DP  RH WIND       PRES   REMARKS
BRANDON        CLOUDY    52  46  82 SW10      30.11R
DAUPHIN        CLOUDY    55  45  67 SW9G18    30.07R
ISLAND LAKE    PTSUNNY   57  14  18 SE10      30.20F
PILOT MOUND      N/A     54  46  76 SW14        N/A
THE PAS        CLOUDY    41  39  93 SE9       30.00R
THOMPSON       PTSUNNY   50  21  32 E10G21    30.18F
WINNIPEG       PTSUNNY   68  30  24 S12G21    30.10F
LYNN LAKE      LGT SNOW  34  34 100 E12G20    30.21F
CHURCHILL      CLOUDY    27  21  80 NE12      30.43S WCI  16
GILLAM         CLOUDY    48  28  46 NE12      30.28S
$$
                ***SASKATCHEWAN***

CITY           SKY/WX    TMP DP  RH WIND       PRES   REMARKS
ESTEVAN        MOSUNNY   50  36  57 NW10G17   30.12R
KINDERSLEY     MOSUNNY   48  28  46 N7        30.13S
LLOYDMINSTER   MOSUNNY   50   5  16 W5        30.12F
PRINCE ALBERT  PTSUNNY   37  32  81 NW13      30.09R
REGINA         CLOUDY    41  34  75 W13       30.14R



USA.gov is the U.S. government's official web portal to all federal, state and local government web resources and services.